Weather in Petra

Jordan     30°19′44″N   35°26′51″E
temp.,
°C
wind,
m/s
gust,
m/s
humid.,
%
clouds,
%
prec.,
mm/h
press.,
hPa
HPBL,
m
5 august, thu
thu500:00+23wnw11290 0.0 101211
03:00+22wsw01310 0.0 101211
06:00+21n01264 0.0 101211
09:00+28wnw34166 0.0 1012647
12:00+30wnw55152 0.0 10112869
15:00+31nw87154 0.0 10102973
18:00+30nw75160 0.0 10092085
21:00+25n46241 0.0 101086
6 august, fri
fri600:00+23ne11253 0.0 101011
03:00+22s11261 0.0 100911
06:00+22sw22270 0.0 100911
09:00+28wnw22190 0.0 1009695
12:00+31wnw65144 0.0 10093452
15:00+31wnw76133 0.0 10083439
18:00+30nw56152 0.0 10072680
21:00+25wnw23210 0.0 100929
7 august, sat
sat700:00+23nw11220 0.0 100911
03:00+23sse22230 0.0 100911
06:00+21wsw22260 0.0 100911
09:00+27wsw34190 0.0 1010849
12:00+31w77160 0.0 10092558
15:00+32w76130 0.0 10082677
18:00+31nw77130 0.0 10082662
21:00+26n34240 0.0 101036
8 august, sun
sun800:00+23wnw11270 0.0 101111
03:00+22w11330 0.0 101111
06:00+21w11300 0.0 101111
09:00+28wsw34190 0.0 1011582
12:00+31wsw68160 0.0 10112089
15:00+32w78170 0.0 10102288
18:00+31wnw910190 0.0 10102727
21:00+24nw33520 0.0 1012101
9 august, mon
mon900:00+22wnw33480 0.0 101333
03:00+21wnw44380 0.0 101263
06:00+19w11400 0.0 101211
09:00+25w11300 0.0 1012493
12:00+29w57210 0.0 10111313
15:00+30wnw67230 0.0 10101308
18:00+28wnw56270 0.0 1010738
21:00+24wnw46380 0.0 1011103